Regional Weather Roundup
Issued by NWS

Home | Current Version | Previous Version | Graphics & Text | Print | Product List | Glossary On
Versions: 1 2 3 4 5 6 7 8 9 10 11 12 13 14 15 16 17 18 19 20 21 22 23 24 25 26 27 28 29 30 31 32 33 34 35 36 37 38 39 40 41 42 43 44 45 46 47 48 49 50
000
ASUS43 KLOT 171606
RWRIL

ILLINOIS REGIONAL WEATHER ROUNDUP
NATIONAL WEATHER SERVICE CHICAGO/ROMEOVILLE IL
1000 AM CST WED DEC 17 2014

NOTE: "FAIR" INDICATES FEW OR NO CLOUDS BELOW 12,000 FEET WITH NO
SIGNIFICANT WEATHER AND/OR OBSTRUCTIONS TO VISIBILITY.

* THESE STATIONS ARE NOT UNDER NWS QUALITY CONTROL. THEY ALSO MAY NOT
  REPORT WEATHER SUCH AS PRECIPITATION OR FOG.

ILZ001-002-007-009-015-016-024-171700-
NORTHWEST ILLINOIS

CITY           SKY/WX    TMP DP  RH WIND       PRES   REMARKS
MOLINE         CLOUDY    22  15  75 W12       30.33R WCI  10
STERLING*      CLOUDY    25  16  68 W15       30.30R WCI  12
SAVANNA*       CLOUDY    24  18  76 W7        30.30R WCI  16
$$

ILZ003-004-008-010-011-017-018-171700-
NORTH CENTRAL ILLINOIS

CITY           SKY/WX    TMP DP  RH WIND       PRES   REMARKS
ROCKFORD       CLOUDY    24  16  71 NW10      30.28R WCI  14
FREEPORT*      CLOUDY    23  17  79 W13G18    30.28S WCI  11
ROCHELLE*      CLOUDY    25  19  77 NW10      30.27R WCI  14
DE KALB*       CLOUDY    23  17  78 W10G22    30.25R WCI  12
PERU*          CLOUDY    27  20  75 W8        30.30S WCI  18
$$

ILZ005-006-012>014-019>023-171700-
NORTHEAST ILLINOIS

CITY           SKY/WX    TMP DP  RH WIND       PRES   REMARKS
CHICAGO-OHARE  CLOUDY    26  17  68 NW12      30.23R WCI  16
CHICAGO-MIDWAY CLOUDY    27  18  69 W12       30.25R WCI  17
AURORA         CLOUDY    27  18  69 W14       30.26R WCI  16
LANSING*       CLOUDY    26  20  79 W12       30.25R WCI  15
WAUKEGAN       CLOUDY    25  16  68 W12       30.22R WCI  14
DUPAGE AIRPORT CLOUDY    26  17  68 NW14      30.24R WCI  14
KANKAKEE*      CLOUDY    25  20  82 W14       30.29R WCI  14
WHEELING       CLOUDY    26  17  68 NW10      30.25R WCI  16
MORRIS*        CLOUDY    26  21  80 W15       30.28R WCI  14
ROMEOVILLE*    CLOUDY    26  19  74 NW9       30.26R WCI  16
NORTHERLY ISL    N/A     27  19  72 W7          N/A  WCI  20
$$

LMZ740>746-171700-
SOUTHERN LAKE MICHIGAN

STATION/POSITION SKY/WX   TEMP    WIND        PRES    VSBY  WAVE
                          AIR SEA DIR/SP/G                  HT/PER
                          (F)     (DEG/KT/KT) (MB)    (MI)  (FT/S)
WAUKEGAN HARBOR            26     310/ 14/ 18   N/A
HARRISON CRIB              25     300/ 11/ 14   N/A
BURNHAM HARBOR             27     280/  6/ 14   N/A
CALUMET HARBOR             26     260/  5/ 12 1022.9R
$$

ILZ025>027-034>036-040-047-049-050-058-095>099-171700-
WEST-CENTRAL ILLINOIS

CITY           SKY/WX    TMP DP  RH WIND       PRES   REMARKS
QUINCY         CLOUDY    22  16  78 N8        30.35R WCI  12
GALESBURG*     CLOUDY    22  17  83 NW9       30.34R WCI  11
MACOMB*        CLOUDY    21  18  86 NW9       30.37S WCI  11
JACKSONVILLE*  CLOUDY    26  21  80 NW9       30.34S WCI  17
PITTSFIELD*    CLOUDY    27  22  80 NW5       30.35S WCI  22
$$

ILZ028>032-037-038-041>044-048-051>054-059>061-171700-
CENTRAL ILLINOIS

CITY           SKY/WX    TMP DP  RH WIND       PRES   REMARKS
PONTIAC        CLOUDY    25  20  82 W17       30.31S WCI  11
BLOOMINGTON    CLOUDY    21  18  88 W7        30.32R WCI  12
DECATUR        CLOUDY    23  18  81 W12       30.33S WCI  12
PEORIA         CLOUDY    23  16  74 W10       30.34R HAZE    WCI  12
LACON*         CLOUDY    24  16  73 W8        30.32R WCI  15
LINCOLN*       CLOUDY    23  18  82 NW3       30.36S
SPRINGFIELD    CLOUDY    25  18  74 NW9       30.35R WCI  15
TAYLORVILLE    CLOUDY    27  21  80 W6        30.34R WCI  20
$$

ILZ033-039-045-046-055>057-062-063-171700-
EAST-CENTRAL ILLINOIS

CITY           SKY/WX    TMP DP  RH WIND       PRES   REMARKS
CHAMPAIGN      CLOUDY    23  18  81 W9        30.31S HAZE    WCI  13
DANVILLE*      CLOUDY    23  20  88 W10       30.27F WCI  12
RANTOUL*       CLOUDY    25  20  84 W10       30.31S WCI  14
MATTOON        CLOUDY    25  19  78 NW12      30.32R WCI  14
PARIS*         CLOUDY    25  22  89 NW9       30.32S WCI  15
$$

ILZ079-100>102-171700-
SOUTHWEST ILLINOIS

CITY           SKY/WX    TMP DP  RH WIND       PRES   REMARKS
BELLEVILLE     CLOUDY    33  24  71 VRB3      30.35S
CAHOKIA*       PTSUNNY   33  25  72 NW6       30.36S WCI  28
SPARTA*        CLOUDY    31  24  75 CALM      30.36F
$$

ILZ064>066-069>071-074>076-080>082-084>086-088>090-092>094-171700-
SOUTH-CENTRAL ILLINOIS

CITY           SKY/WX    TMP DP  RH WIND       PRES   REMARKS
CARBONDALE     CLOUDY    32  24  72 VRB5      30.36R WCI  27
CAIRO*         PTSUNNY   35  27  72 N5        30.36R WCI  31
EFFINGHAM*     CLOUDY    29  22  73 W8        30.35R WCI  21
MARION         CLOUDY    32  25  74 NW9       30.36R WCI  24
MT. VERNON     CLOUDY    32  23  69 W5        30.36R WCI  27
CENTRALIA*     CLOUDY    31  24  76 W6        30.34S WCI  25
SALEM*         CLOUDY    33  26  75 NW5       30.35R WCI  28
METROPOLIS*    MOSUNNY   33  27  78 N5        30.35R WCI  28
$$

ILZ067-068-072-073-078-083-087-091-171700-
SOUTHEAST ILLINOIS

CITY           SKY/WX    TMP DP  RH WIND       PRES   REMARKS
LAWRENCEVILLE  CLOUDY    30  22  72 NW7       30.35R WCI  23
FLORA*         CLOUDY    30  24  79 NW6       30.35R WCI  24
FAIRFIELD*     CLOUDY    32  25  76 W3        30.34R
HARRISBURG*    CLOUDY    32  26  77 W5        30.37R WCI  27
ROBINSON*      CLOUDY    29  24  82 N6        30.34R WCI  23
CARMI*         CLOUDY    33  28  80 NW7       30.35R WCI  27
$$

ABBREVIATIONS USED IN REMARKS
   TC - TEMPERATURE IN CELSIUS
  WCI - WIND CHILL INDEX
   HX - HEAT INDEX
  VSB - VISIBILITY
$$



USA.gov is the U.S. government's official web portal to all federal, state and local government web resources and services.